Weather History for Lafayette, IN

Change the Weather History Date:

Sunday, September 9, 2012

  Actual Average Record
Temperature  
Mean Temperature 61 °F 69 °F  
Max Temperature 72 °F 81 °F 96 °F (1983)
Min Temperature 50 °F 57 °F 41 °F (1986)
Degree Days  
Heating Degree Days 4 1  
Month to date heating degree days 6 8  
Since 1 July heating degree days 9 14  
Cooling Degree Days 0 5  
Month to date cooling degree days 63 53  
Year to date cooling degree days 1170 905  
Growing Degree Days 12 (Base 50)    
Moisture  
Dew Point 52 °F    
Average Humidity 73    
Maximum Humidity 93    
Minimum Humidity 53    
Precipitation  
Precipitation T in 0.10 in 0.93 in (1992)
Month to date precipitation 2.82 0.82  
Year to date precipitation 20.23 26.37  
Sea Level Pressure  
Sea Level Pressure 29.99 in    
Wind  
Wind Speed 6 mph (North)    
Max Wind Speed 17 mph    
Max Gust Speed 24 mph    
Visibility 10 miles    
Events      
T = Trace of Precipitation, MM = Missing Value Source: NWS Daily Summary

Daily Weather History Graph

Daily Weather History Graph

Search for Another Location

Airport:

Trip Planner

Search our weather history database for the weather conditions in past years. The results will help you decide how hot, cold, wet, or windy it might be!

Date:

Astronomy

Sep. 09, 2012 Rise Set
Actual Time 7:23 AM EDT 8:05 PM EDT
Civil Twilight 6:55 AM EDT 8:33 PM EDT
Nautical Twilight 6:23 AM EDT 9:05 PM EDT
Astronomical Twilight 5:49 AM EDT 9:39 PM EDT
Moon 12:51 AM EDT (9/9) 3:51 PM EDT (9/9)
Length of Visible Light 13h 37m
Length of Day
12h 42m
Last Quarter, 39% of the Moon is Illuminated
Sep 9
Last Quarter
Sep 15
New
Sep 22
First Quarter
Sep 29
Full
Oct 8
Last Quarter

Hourly Weather History & Observations

Time (EDT) Temp. Dew Point Humidity Pressure Visibility Wind Dir Wind Speed Gust Speed Precip Events Conditions
12:54 AM 54.0 °F 51.1 °F 90% 29.89 in 10.0 mi Calm Calm - N/A   Clear
1:54 AM 55.9 °F 52.0 °F 87% 29.88 in 10.0 mi Calm Calm - N/A   Overcast
2:54 AM 55.9 °F 54.0 °F 93% 29.88 in 10.0 mi Calm Calm - 0.00 in   Overcast
3:54 AM 57.0 °F 52.0 °F 83% 29.87 in 10.0 mi Calm Calm - N/A   Overcast
4:54 AM 57.0 °F 50.0 °F 77% 29.85 in 10.0 mi Calm Calm - N/A   Mostly Cloudy
5:54 AM 54.0 °F 50.0 °F 86% 29.86 in 10.0 mi West 3.5 mph - N/A   Clear
6:54 AM 53.1 °F 48.9 °F 86% 29.88 in 10.0 mi Calm Calm - N/A   Clear
8:54 AM 55.9 °F 52.0 °F 87% 29.94 in 10.0 mi Calm Calm - N/A   Clear
9:54 AM 61.0 °F 54.0 °F 78% 29.97 in 10.0 mi NE 8.1 mph - N/A   Clear
10:54 AM 64.9 °F 53.1 °F 65% 30.00 in 10.0 mi NE 9.2 mph - N/A   Clear
11:54 AM 66.0 °F 54.0 °F 65% 30.01 in 10.0 mi NNW 10.4 mph 16.1 mph N/A   Scattered Clouds
12:54 PM 66.9 °F 53.1 °F 61% 30.02 in 10.0 mi North 10.4 mph - N/A   Scattered Clouds
1:54 PM 69.1 °F 54.0 °F 58% 30.01 in 10.0 mi NW 9.2 mph 17.3 mph N/A   Scattered Clouds
2:54 PM 72.0 °F 55.0 °F 55% 30.02 in 10.0 mi NW 15.0 mph - N/A   Mostly Cloudy
3:54 PM 71.1 °F 54.0 °F 55% 30.02 in 10.0 mi North 10.4 mph 17.3 mph N/A   Mostly Cloudy
4:54 PM 71.1 °F 54.0 °F 55% 30.03 in 10.0 mi NNE 11.5 mph - N/A   Mostly Cloudy
5:54 PM 70.0 °F 54.0 °F 57% 30.04 in 10.0 mi North 12.7 mph 21.9 mph N/A   Scattered Clouds
6:54 PM 66.9 °F 53.1 °F 61% 30.06 in 10.0 mi North 8.1 mph - N/A   Overcast
7:54 PM 64.9 °F 54.0 °F 68% 30.07 in 10.0 mi North 9.2 mph - N/A   Clear
8:54 PM 62.1 °F 51.1 °F 67% 30.09 in 10.0 mi North 6.9 mph - N/A   Clear
9:54 PM 60.1 °F 52.0 °F 75% 30.11 in 10.0 mi North 5.8 mph - N/A   Clear
10:54 PM 59.0 °F 51.1 °F 75% 30.12 in 10.0 mi North 6.9 mph - N/A   Clear
11:54 PM 57.0 °F 50.0 °F 77% 30.14 in 10.0 mi North 3.5 mph - N/A   Clear